Theta_e
301 300 298 298 297 296 295 295 294 293 293 293 292 292 292 291 291 291 290 288 287 286 285 285 284 284 284 284 284 284 284 284 285 287 287 287 287 287 287 287 287 287 287 288 288 288 289 289 289 289 289 289 289 289 289 289 289 289 289 289 289 289 289 289 290 290 290 290 291 291 291 292 292 292 293 293 294 294 294 294 294 294 294 294 295 295
299 298 296 296 295 295 294 294 293 293 292 292 292 292 292 292 291 290 289 287 286 285 285 284 284 284 284 284 284 284 284 284 285 286 286 286 286 285 285 286 286 286 286 287 287 288 288 288 289 289 289 289 289 289 289 289 289 289 289 289 289 289 289 289 289 289 290 290 290 291 291 291 292 292 292 293 293 293 293 293 293 293 293 293 293 293
297 296 295 294 294 294 294 293 292 292 292 292 291 291 291 291 290 289 288 286 285 285 284 284 284 284 284 284 284 284 283 284 284 284 284 284 284 284 284 285 285 285 286 286 287 287 287 288 288 288 288 288 288 288 288 288 288 288 288 288 288 288 288 288 289 289 289 290 290 290 291 291 291 292 292 292 292 292 292 292 292 292 292 292 292 292
296 295 294 294 293 293 293 292 292 291 291 291 291 291 290 290 289 288 286 286 285 285 284 284 284 284 284 284 284 284 283 283 283 283 283 283 283 283 284 284 284 285 285 286 286 286 287 287 287 287 287 287 287 287 287 287 287 287 287 287 287 287 288 288 288 289 289 289 290 290 290 290 291 291 291 291 291 291 291 291 291 291 292 292 292 292
295 295 294 294 293 292 292 292 291 291 290 290 290 290 289 288 287 286 286 285 285 285 285 285 284 284 284 284 284 284 283 283 283 283 283 283 283 283 283 283 284 284 285 285 285 286 286 286 286 286 286 286 286 287 287 286 286 286 286 286 286 287 287 288 288 289 289 289 289 289 290 290 290 290 290 290 290 290 290 290 291 291 291 291 292 292
295 295 295 293 292 291 291 291 290 290 290 289 289 289 288 287 286 286 285 285 285 285 285 285 285 284 284 284 284 283 283 283 283 283 283 283 283 283 282 282 283 283 284 284 284 284 285 285 285 285 285 286 286 286 286 285 285 285 285 285 286 287 287 288 288 288 289 289 289 289 289 289 289 290 290 290 290 290 290 290 290 290 291 291 291 291
294 294 294 293 292 291 290 290 290 290 290 289 288 287 287 286 286 285 285 285 285 285 285 285 285 284 284 284 283 283 283 283 283 283 283 283 283 282 282 282 282 282 283 283 283 284 284 284 284 284 284 285 285 285 285 284 284 284 285 285 286 286 287 288 288 288 288 288 288 289 289 289 289 289 289 289 289 289 289 289 290 290 290 290 290 291
294 293 292 291 290 290 290 289 289 289 289 288 287 286 286 285 285 285 285 285 285 285 285 285 285 285 284 284 283 283 283 283 283 282 283 283 283 282 282 282 282 282 282 282 282 283 283 283 283 283 283 284 284 284 283 283 283 284 284 285 286 286 287 287 287 288 288 288 288 288 288 288 288 288 288 289 289 289 289 289 289 289 289 290 290 290
296 294 291 290 290 289 289 289 289 288 288 287 286 286 285 285 285 285 285 285 284 284 284 285 285 285 284 284 283 283 283 282 282 282 282 282 282 282 282 282 282 282 282 282 282 282 282 282 282 282 282 282 282 282 282 282 283 283 284 285 285 286 286 287 287 287 287 287 287 288 288 288 288 288 288 288 288 288 288 288 289 289 289 289 289 289
296 294 292 290 290 290 289 288 288 287 287 286 286 285 285 284 284 284 284 284 284 284 284 284 284 284 284 284 283 283 283 282 282 282 282 282 282 282 282 282 281 281 281 281 281 281 281 281 281 282 282 281 281 281 281 282 282 283 284 285 285 286 286 286 287 287 287 287 287 287 287 287 287 287 288 288 288 288 288 288 288 289 289 289 289 289
293 293 292 290 290 289 289 288 287 287 286 286 285 285 284 284 284 283 283 283 283 284 283 283 283 283 283 283 283 283 283 282 282 282 282 282 282 282 282 281 281 281 281 281 281 281 281 281 281 281 281 281 280 280 281 281 282 283 284 285 285 286 286 286 286 286 286 286 287 287 287 287 287 287 287 287 287 288 288 288 288 288 288 288 288 288
291 290 289 289 288 288 288 287 287 286 286 285 285 285 284 284 283 283 282 282 282 283 283 283 283 282 282 283 283 283 282 282 282 282 282 282 282 282 282 282 281 281 281 281 281 281 281 281 280 280 280 280 280 280 280 281 282 283 284 285 285 285 286 286 286 286 286 286 286 286 286 286 287 287 287 287 287 287 288 287 288 288 288 288 288 288
291 289 288 288 288 287 287 286 286 286 285 285 285 284 284 283 283 282 282 282 282 282 282 282 282 282 282 282 282 282 282 282 282 281 281 282 282 282 281 282 282 281 281 281 281 281 281 280 280 280 280 280 280 280 281 281 282 283 284 285 285 285 285 285 285 286 286 286 286 286 286 286 286 286 286 287 287 287 287 287 287 287 287 288 288 288
289 289 288 287 287 286 286 286 286 285 285 284 284 284 284 283 282 282 282 282 282 282 282 281 282 282 282 282 282 282 282 281 281 281 281 281 281 281 281 281 281 281 281 281 281 281 281 280 280 280 280 280 280 280 281 282 282 283 284 284 285 285 285 285 285 285 285 285 285 286 286 286 286 286 286 286 287 287 287 287 287 287 287 287 287 288
288 287 287 287 286 286 286 286 285 285 284 284 284 284 283 283 282 282 281 281 282 282 282 281 282 282 282 282 281 281 281 281 281 280 280 281 281 281 281 281 281 281 281 281 281 281 280 280 280 280 280 280 280 280 281 282 283 283 284 284 284 285 285 285 285 285 285 285 285 285 285 285 286 286 286 286 286 286 286 286 286 287 287 287 287 287
287 287 287 287 286 286 286 285 285 284 284 284 284 284 283 283 282 282 281 282 282 282 281 281 281 281 282 282 282 281 281 280 280 280 279 280 281 281 281 280 281 281 281 281 280 280 280 280 280 280 280 280 280 280 281 282 283 283 284 284 284 284 284 285 285 285 285 285 285 285 285 285 285 286 286 286 286 286 286 286 286 286 287 287 287 287
287 286 286 287 286 286 285 285 284 284 284 284 284 284 284 283 282 282 282 282 282 282 281 281 280 280 281 281 281 281 281 280 280 279 279 279 280 281 280 280 280 280 280 280 280 280 280 280 280 280 280 280 280 280 281 282 282 283 284 284 284 284 284 284 284 284 285 285 285 285 285 285 285 285 285 285 286 286 286 286 286 286 286 287 287 287
286 286 286 286 286 285 285 284 284 284 284 284 284 284 283 283 282 282 282 282 282 281 281 281 280 279 280 280 281 281 280 280 279 279 279 279 280 280 280 280 280 280 280 280 280 280 280 280 280 280 280 280 280 280 281 282 282 283 283 284 284 284 284 284 284 284 284 285 285 285 285 285 285 285 285 285 285 285 285 285 286 286 286 286 287 287
286 286 286 286 286 285 284 284 284 284 284 284 284 284 283 283 283 283 283 282 282 281 281 280 280 280 280 280 280 281 280 280 279 279 279 279 279 280 280 280 280 280 279 279 280 280 279 279 280 280 280 280 280 280 281 281 282 283 283 283 284 284 284 284 284 284 284 284 284 284 284 284 284 284 285 285 285 285 285 285 285 286 286 286 286 287
286 286 286 286 286 285 284 284 284 285 284 284 284 284 283 283 282 282 282 282 282 281 281 280 280 280 280 280 280 280 280 280 279 279 279 279 279 279 280 279 279 279 279 279 279 279 279 279 280 280 280 280 280 280 281 281 282 283 283 283 283 283 283 284 284 284 284 284 284 284 284 284 284 284 284 284 285 285 285 285 285 285 285 286 286 287
286 286 286 285 285 284 284 284 285 285 284 284 284 284 283 282 282 282 282 282 281 281 280 280 280 280 280 280 280 280 280 279 279 279 279 279 279 279 279 279 279 279 279 279 279 279 279 279 279 280 280 280 280 280 281 281 282 282 283 283 283 283 283 283 283 283 283 283 284 284 284 284 284 284 284 284 284 284 284 284 285 285 285 286 287 287
286 286 285 284 284 284 285 285 285 285 284 285 284 284 283 283 283 283 282 282 281 280 280 280 280 280 280 280 280 280 280 279 279 279 278 278 279 279 279 279 279 279 278 279 279 279 279 279 279 280 280 280 280 280 280 281 281 282 282 282 283 283 283 283 283 283 283 283 283 283 283 283 283 283 284 284 284 284 284 284 284 285 285 286 287 287
285 285 284 284 285 285 285 285 285 285 285 285 285 284 283 283 283 283 282 281 281 280 280 280 280 280 280 280 280 280 279 279 279 278 278 278 278 279 279 279 278 278 278 278 279 279 279 279 279 280 280 280 279 279 280 280 281 281 282 282 282 282 282 282 282 282 282 283 283 283 283 283 283 283 283 283 283 284 284 284 284 285 285 286 286 286
285 285 285 285 285 285 285 285 285 285 285 285 284 284 283 283 283 282 282 281 280 280 280 280 280 280 280 280 280 279 279 279 279 278 278 279 279 279 279 278 278 278 278 278 278 278 278 279 279 280 280 279 279 279 279 280 280 281 281 281 282 282 282 282 282 282 282 282 282 282 283 283 283 283 283 283 283 283 283 284 284 285 286 286 285 284
285 285 286 286 285 285 285 285 285 285 285 284 284 284 284 283 283 282 281 280 280 280 280 280 280 279 280 279 279 279 279 279 279 278 278 279 279 278 278 278 278 278 278 278 278 278 278 278 279 280 279 279 279 279 279 279 280 280 281 281 281 281 281 281 281 281 281 282 282 282 282 282 282 282 282 283 283 283 283 284 284 285 285 285 284 283
286 286 286 286 286 286 286 285 285 285 285 285 284 284 283 283 282 281 280 280 280 280 280 279 279 279 279 279 279 279 279 279 278 278 278 278 278 278 278 278 278 278 277 277 277 277 278 278 279 279 279 279 279 279 278 279 279 280 280 280 280 280 280 281 281 281 281 281 281 282 282 282 282 282 282 282 282 283 283 283 284 285 285 284 283 282
287 286 286 286 286 285 285 285 285 285 285 284 284 283 283 282 281 281 280 280 280 280 279 278 278 278 279 279 279 279 278 278 278 278 278 277 277 277 278 278 278 277 277 277 277 277 278 278 278 279 279 279 279 278 278 278 279 279 279 279 279 280 280 280 280 280 281 281 281 281 281 281 281 282 282 282 282 282 283 283 284 284 284 283 282 281
286 286 285 285 284 284 284 283 283 283 283 283 283 282 281 281 280 280 280 280 279 279 278 278 277 278 278 278 278 278 278 278 278 278 278 277 277 278 278 278 277 277 277 277 277 277 278 278 278 279 279 278 278 278 278 278 278 278 278 278 278 279 279 279 279 280 280 280 280 281 281 281 281 281 281 281 282 282 283 283 283 283 283 282 282 281
285 285 285 284 284 283 283 282 282 281 282 282 281 281 280 280 280 280 280 279 279 279 278 278 277 277 277 277 277 278 279 279 278 278 277 277 277 278 278 277 277 277 277 276 277 277 278 278 279 279 278 278 278 278 278 278 278 278 278 278 278 278 278 279 279 279 280 280 280 280 280 280 281 281 281 281 282 282 282 283 283 282 282 282 281 281
285 284 284 283 283 282 282 281 281 280 280 280 280 280 280 280 280 279 279 279 279 279 278 277 277 277 276 276 277 277 278 279 279 278 277 277 277 277 277 277 277 276 276 276 276 277 278 278 279 279 278 278 278 278 277 277 277 277 278 277 277 277 278 278 278 279 279 279 279 279 280 280 280 280 281 281 281 282 282 282 282 282 282 281 281 281
284 283 283 283 282 282 281 281 280 280 280 280 280 280 279 279 279 279 279 279 279 278 278 277 277 276 276 276 276 276 277 279 279 278 277 277 277 277 277 276 276 276 276 276 276 276 277 278 278 278 278 278 277 277 277 277 277 277 277 277 277 277 277 278 278 278 278 278 279 279 279 279 280 280 280 281 281 281 281 282 282 281 281 281 281 281
283 283 282 282 281 281 280 280 280 280 280 279 279 279 279 279 279 279 279 279 279 278 278 277 277 276 276 276 276 276 277 278 278 277 277 276 276 276 276 276 276 276 276 275 275 275 276 277 277 278 277 277 277 277 277 277 277 277 277 277 277 277 277 277 277 277 278 278 278 278 279 279 279 279 280 280 281 281 281 281 281 281 281 281 281 281
283 282 282 281 281 280 280 280 279 279 279 279 279 279 279 279 279 279 279 278 278 278 278 277 277 276 276 276 276 276 277 277 277 277 276 276 276 276 276 276 275 275 275 275 275 275 275 276 276 276 277 277 277 277 277 277 277 277 277 277 277 277 277 277 277 277 277 277 278 278 278 278 279 279 280 280 280 281 281 281 281 281 281 281 281 281
282 282 281 280 280 280 279 279 279 279 279 279 279 279 279 279 279 279 279 278 278 278 278 277 277 276 275 275 276 276 276 277 277 276 276 275 275 275 275 275 275 275 275 275 275 275 275 275 275 276 276 276 277 277 277 277 277 277 276 276 276 277 277 277 277 277 277 277 278 278 278 278 278 279 279 280 280 280 280 280 280 281 281 281 281 281
282 281 280 280 280 279 279 279 279 279 279 279 279 279 279 279 279 279 278 278 278 278 277 277 277 277 276 275 275 276 276 277 277 276 275 275 274 275 275 275 275 275 275 275 275 275 275 275 275 276 276 276 276 276 277 277 276 276 276 276 276 276 277 277 277 277 277 277 278 278 278 278 278 279 279 279 279 280 280 280 280 280 280 280 280 280
281 280 280 280 280 280 280 280 280 280 279 279 279 279 279 279 279 279 278 278 278 277 277 277 277 276 276 275 275 275 275 276 276 276 275 275 274 274 274 274 274 274 274 274 275 275 275 275 275 275 276 276 276 276 276 276 276 276 276 276 276 276 277 277 277 277 277 277 278 278 278 278 279 279 279 279 279 279 279 279 279 279 280 280 280 280
280 280 279 280 280 280 280 280 279 279 279 279 279 279 279 279 279 278 278 278 278 277 277 277 276 276 276 275 275 275 275 275 276 275 275 275 275 274 274 274 274 274 274 274 274 274 274 274 275 275 275 275 276 276 276 276 276 276 276 276 276 276 277 277 277 277 277 277 278 278 278 279 279 279 278 279 279 279 278 278 279 279 279 279 280 280
279 279 279 280 279 279 279 279 279 279 279 279 279 279 279 279 278 278 278 278 278 277 277 277 277 277 276 276 276 276 276 276 275 275 275 275 275 275 275 275 275 275 274 274 274 274 274 274 274 274 275 275 275 276 276 275 275 275 276 276 276 277 277 277 277 277 277 278 278 278 278 279 279 278 278 278 278 278 278 278 278 278 279 279 279 279
279 279 279 279 279 279 279 279 279 279 279 279 279 279 279 278 278 278 278 278 278 277 277 277 277 277 277 277 277 276 276 276 276 276 276 275 275 275 275 275 275 275 274 274 274 273 273 274 274 274 274 275 275 275 275 275 275 275 276 276 276 277 277 277 277 277 277 278 278 278 278 278 278 278 278 278 278 278 278 278 278 278 279 279 279 279
279 279 279 279 279 279 279 279 279 279 279 279 279 278 278 278 278 278 278 278 278 278 278 278 278 278 278 278 277 277 277 277 277 276 276 276 276 275 275 275 275 275 274 274 274 273 273 274 274 274 274 274 275 275 275 275 275 275 276 276 276 277 277 277 277 277 278 278 278 278 278 278 278 278 278 278 278 278 278 278 278 278 278 279 279 279
279 279 279 279 279 279 279 279 279 279 279 279 278 278 278 278 278 279 279 279 279 279 279 279 279 279 280 279 278 278 277 277 277 277 276 276 276 276 275 275 275 275 274 274 274 274 274 274 274 274 274 274 274 275 275 275 275 275 276 276 276 276 276 277 277 278 278 278 278 278 278 278 278 278 278 278 278 278 278 278 278 278 279 279 279 279
279 279 279 279 279 279 279 279 279 279 279 278 278 278 278 278 278 278 279 279 280 280 280 279 279 279 279 279 279 278 278 277 277 277 276 276 276 276 275 275 275 275 274 274 274 274 274 274 274 274 274 274 275 275 275 275 275 275 275 275 276 276 276 277 277 277 278 278 278 278 278 278 278 278 278 278 278 278 278 278 278 278 279 279 279 279
279 279 279 279 279 279 279 279 279 279 279 278 278 277 277 277 278 278 279 279 279 279 279 279 278 278 277 278 278 279 278 278 277 277 276 276 276 276 275 275 275 275 275 274 274 274 274 274 274 274 275 275 275 275 275 275 275 275 275 275 276 276 277 277 277 277 278 278 278 278 278 278 278 278 278 278 278 278 278 278 278 279 279 279 279 279
279 279 279 279 279 280 280 279 279 279 278 278 278 278 278 278 278 278 279 279 278 278 278 277 277 277 276 276 276 277 277 278 277 277 276 276 276 276 275 275 275 275 275 275 274 274 274 274 275 275 275 275 275 274 274 275 275 275 275 275 276 276 277 277 277 277 278 278 278 278 278 278 278 278 278 278 278 278 278 278 278 279 279 279 279 279
279 279 279 280 280 280 280 279 279 278 278 278 278 278 278 279 279 278 278 278 278 277 277 276 275 275 275 275 275 276 276 276 277 277 277 276 276 276 276 276 276 275 275 275 275 275 275 275 275 275 275 275 275 274 274 275 275 275 275 276 276 276 277 277 277 277 278 278 278 278 278 278 278 278 278 278 278 278 278 278 278 279 279 279 279 279
279 280 280 280 280 280 279 279 279 279 278 278 278 278 279 279 279 279 278 277 276 276 276 275 274 274 274 275 275 275 275 276 276 277 277 277 276 276 276 276 276 276 276 276 275 275 275 275 275 275 275 275 275 275 275 275 275 275 275 276 276 276 277 277 277 278 278 278 278 278 278 278 278 278 278 278 278 278 278 278 279 279 279 279 279 280
280 280 280 280 280 280 279 279 279 279 279 279 279 279 279 279 279 278 278 277 276 275 274 274 274 274 274 275 275 275 276 276 276 277 277 277 276 276 276 276 276 276 276 276 276 276 276 276 276 276 275 275 275 275 276 276 276 276 276 276 276 277 277 278 278 278 278 278 278 278 278 278 278 278 278 278 278 278 278 279 279 279 279 279 280 280
280 280 280 280 280 279 279 279 279 279 279 279 279 279 279 278 277 277 277 276 275 275 274 274 274 275 275 275 275 276 276 277 277 277 277 276 276 277 277 277 277 276 276 276 276 276 276 277 277 277 276 276 275 275 276 277 277 277 277 277 277 277 277 278 278 278 278 278 278 278 278 278 278 278 278 278 278 278 278 279 279 279 279 280 280 280
280 280 279 279 279 279 278 279 278 278 278 278 279 279 279 278 277 276 276 276 275 274 274 274 275 275 275 276 276 276 277 277 277 277 277 277 277 277 277 277 277 276 276 277 277 277 277 277 277 277 277 277 276 276 277 277 278 278 278 277 277 278 278 278 278 278 278 279 279 278 278 278 278 278 278 278 278 278 279 279 279 279 280 280 280 280
279 279 279 279 278 278 278 278 278 278 278 277 278 278 279 278 278 277 276 275 275 275 275 275 275 275 276 276 277 277 277 277 277 277 277 277 277 277 277 277 277 277 277 277 277 277 277 278 278 278 278 278 278 278 278 278 278 278 278 278 278 278 278 279 279 279 279 279 279 279 278 278 278 278 278 278 278 278 279 279 279 280 280 280 280 280
279 279 279 278 278 278 278 278 278 277 277 277 277 277 278 278 278 277 276 275 275 275 275 275 276 276 276 277 277 277 277 277 277 277 277 277 277 277 277 277 277 277 277 277 277 278 278 278 278 279 279 279 279 279 279 279 279 279 279 279 279 279 279 279 279 279 279 279 279 279 278 278 278 278 278 278 278 279 279 279 280 280 280 280 280 280
Wind_Speed
13 13 13 13 13 14 14 13 13 12 13 14 14 14 14 15 16 17 18 19 19 18 17 16 15 15 15 16 15 15 13 11 10 11 12 12 13 14 14 15 15 15 15 15 15 15 15 15 15 16 16 17 17 18 18 18 18 19 19 19 19 19 19 20 20 20 20 20 20 21 21 21 21 21 22 22 22 22 22 22 23 23 24 24 25 25
13 13 13 13 14 14 14 13 13 13 13 14 14 15 15 15 15 16 17 17 17 16 15 14 14 14 14 15 14 13 12 10 10 11 12 13 13 14 14 15 15 15 15 15 14 14 15 15 15 16 16 17 17 18 18 18 18 18 18 19 19 19 19 19 19 19 20 20 20 20 20 21 21 21 21 21 22 22 22 22 23 23 24 25 25 26
13 13 14 14 14 14 13 13 13 13 13 13 14 15 15 15 16 16 16 16 15 14 13 13 13 13 13 13 13 12 11 10 10 11 12 13 14 14 15 15 15 15 15 14 14 14 14 15 15 16 16 17 17 17 18 18 18 18 18 19 19 19 19 19 19 19 19 19 19 20 20 20 20 21 21 21 21 21 22 22 23 23 24 24 25 25
14 14 15 14 14 14 13 12 12 12 12 13 13 14 15 15 15 15 15 15 13 13 12 12 12 12 12 12 11 10 9 9 10 11 12 13 14 15 15 14 14 14 14 14 14 14 14 15 15 16 16 17 17 17 17 17 18 18 18 19 18 18 18 18 18 18 18 19 19 19 20 20 20 20 20 21 21 21 22 22 23 23 23 24 24 25
15 15 15 14 14 13 13 13 12 11 12 12 13 13 14 14 14 14 14 14 13 12 11 11 11 11 11 11 10 9 9 10 11 12 13 14 15 15 15 14 14 14 14 13 13 14 14 15 15 16 16 16 16 17 17 17 18 18 18 18 18 17 17 17 17 18 18 18 18 19 19 19 20 20 20 21 21 21 22 22 22 23 23 23 24 24
14 14 14 14 13 13 12 12 11 11 11 11 12 13 13 14 14 14 13 13 13 12 11 11 11 11 11 10 9 9 10 11 13 14 15 16 16 16 16 15 14 14 13 13 13 13 14 15 15 15 16 16 16 17 17 17 18 18 17 17 17 16 17 17 17 17 18 18 18 19 19 19 20 20 20 21 21 21 21 22 22 22 23 23 23 23
12 13 14 14 14 14 12 11 10 10 10 11 12 12 13 13 13 13 13 13 13 13 12 12 12 11 10 9 9 10 11 14 16 17 18 18 18 17 17 16 15 14 13 13 13 14 14 15 15 15 15 16 16 17 17 17 17 17 16 16 16 16 16 17 17 17 18 18 18 19 19 19 20 20 20 20 21 21 21 21 22 22 22 22 22 22
9 11 13 13 13 13 12 11 10 10 10 10 11 12 12 13 14 14 14 13 14 14 14 14 13 12 10 9 10 11 13 16 18 19 20 20 20 19 18 17 16 15 14 14 14 14 14 14 14 15 15 16 16 17 17 17 16 16 15 15 15 16 16 17 17 18 18 18 18 19 19 19 20 20 20 20 20 21 21 21 21 21 21 22 22 22
7 8 11 13 12 11 9 9 9 9 9 10 10 11 12 13 15 15 15 14 14 15 16 16 16 14 11 10 11 13 15 18 20 21 21 21 21 20 19 18 17 16 15 15 15 15 14 14 14 15 16 16 17 17 17 16 15 15 14 15 16 16 17 17 17 18 18 18 18 19 19 19 19 20 20 20 20 20 20 21 21 21 21 21 21 21
8 8 9 11 12 11 8 7 7 8 8 8 9 10 10 12 15 16 17 16 16 16 17 18 18 16 14 12 12 15 18 20 21 21 21 22 21 21 20 19 18 17 17 16 16 16 16 15 15 16 17 17 17 17 16 15 14 14 14 15 16 16 17 17 17 18 18 18 18 18 19 19 19 20 20 20 20 20 20 20 20 20 20 20 21 21
8 9 9 9 10 11 9 7 6 6 7 7 8 8 9 11 13 15 16 17 18 18 18 18 18 17 15 14 15 17 19 22 23 23 23 23 22 21 20 19 19 18 18 18 17 18 17 17 17 18 19 19 18 16 15 14 14 14 15 16 16 17 17 17 17 18 18 18 18 19 19 19 19 19 20 20 20 20 20 20 20 20 20 20 21 21
8 8 8 8 8 8 8 8 7 6 6 6 5 5 7 10 13 13 14 16 18 19 20 20 18 16 14 14 16 19 22 24 26 26 25 25 24 22 21 20 19 19 19 19 19 19 19 19 19 20 21 20 19 16 14 13 14 15 16 16 16 17 17 17 17 17 18 18 18 19 19 19 19 19 20 20 20 19 19 19 20 20 20 20 21 21
9 8 8 7 7 7 6 5 4 4 4 5 5 5 7 10 12 13 13 14 16 18 19 20 19 17 13 13 15 19 23 26 27 27 27 26 25 24 23 22 21 21 21 21 21 21 21 21 22 23 23 22 19 16 14 14 15 16 16 16 16 16 17 17 17 17 18 18 18 19 19 19 19 19 19 19 19 19 19 19 20 20 20 20 20 21
9 8 7 6 6 6 6 4 2 2 4 5 6 6 8 10 12 13 14 15 16 17 18 18 19 17 13 12 14 18 23 26 28 28 27 26 25 24 23 23 22 22 22 23 23 23 23 24 25 25 24 22 19 17 16 15 16 16 16 16 16 17 17 17 17 18 18 18 19 19 19 19 19 19 19 19 19 19 19 20 20 20 20 20 20 20
9 8 6 6 5 5 5 4 3 2 3 4 5 7 9 10 11 12 13 14 16 17 18 18 18 15 11 10 13 18 22 25 27 27 27 26 25 24 23 23 23 23 23 24 24 24 24 25 26 27 26 23 20 18 17 17 17 17 16 17 17 17 17 17 18 18 18 19 19 19 19 19 19 19 19 19 19 19 20 20 20 20 20 20 20 20
10 9 6 6 6 6 5 3 2 1 2 3 5 6 8 9 10 12 12 13 15 16 16 16 15 13 10 11 14 18 22 25 26 26 26 26 25 23 22 22 23 24 24 25 25 26 26 27 28 28 27 24 20 18 17 16 17 17 17 17 17 17 17 18 18 18 19 19 19 19 19 19 19 19 19 19 19 20 20 20 20 20 20 20 20 20
10 9 8 7 6 6 4 3 2 0 2 3 5 6 7 8 10 11 11 13 14 14 13 12 9 7 8 13 16 19 23 25 25 25 24 25 24 23 22 22 23 24 25 26 26 26 27 28 28 28 27 23 20 17 16 16 17 17 17 17 17 17 18 18 19 19 19 20 20 20 19 19 19 19 19 19 19 20 20 20 20 20 19 19 19 19
10 9 9 7 6 5 4 3 2 0 2 3 5 6 7 8 9 10 11 12 12 12 11 11 8 6 7 11 15 19 23 23 24 24 23 23 23 23 21 21 22 24 25 26 26 26 27 28 29 29 26 23 20 17 16 16 17 17 17 18 18 18 18 18 19 19 20 20 20 20 19 19 19 19 19 19 19 19 19 19 19 19 19 19 19 19
10 10 9 7 6 5 4 3 2 1 2 4 5 6 7 8 10 11 11 11 11 11 11 10 10 10 10 13 19 22 21 21 21 22 21 21 22 22 20 20 22 24 26 26 26 27 27 29 30 28 26 22 19 17 17 17 17 18 18 18 18 18 18 19 19 20 20 20 20 20 19 19 19 19 19 19 19 19 19 19 18 18 18 18 18 19
9 9 8 6 5 5 5 3 1 1 2 4 5 6 7 9 10 11 11 11 11 11 11 11 11 12 14 17 21 22 20 19 20 20 19 19 20 20 19 19 22 24 26 27 27 27 28 30 30 29 25 22 19 17 17 17 18 18 18 18 18 18 19 19 20 20 20 20 20 19 19 19 19 19 19 19 19 19 18 18 18 17 17 17 18 18
7 6 5 4 5 5 5 3 1 2 3 5 6 7 8 9 10 11 11 12 12 12 12 12 13 15 17 20 21 21 18 17 18 17 17 17 18 18 18 19 22 24 25 26 27 28 29 31 30 29 25 22 19 18 17 17 18 18 18 18 18 19 19 20 20 20 20 20 19 19 19 19 19 19 19 19 18 18 18 17 17 16 16 17 18 17
5 6 6 5 4 4 3 2 2 2 3 5 6 6 7 9 10 11 12 13 13 13 13 14 17 19 20 20 19 18 16 15 15 16 16 14 15 17 17 19 21 23 24 26 27 29 31 31 30 28 25 21 19 17 17 17 17 18 18 18 19 19 20 20 20 20 20 19 19 19 19 18 18 18 18 18 18 17 17 16 16 16 16 17 17 15
6 7 7 6 5 4 3 3 3 3 4 5 6 7 8 9 10 11 12 13 14 15 16 19 21 22 21 19 17 15 14 14 15 15 13 9 12 16 18 19 21 22 23 25 27 29 31 30 29 27 24 21 18 17 17 17 17 18 18 19 19 20 21 21 20 20 19 19 19 19 18 18 18 18 18 17 17 17 16 15 15 16 17 17 15 13
7 7 7 6 6 5 4 3 3 4 5 6 7 8 9 10 11 12 13 14 15 16 18 21 22 21 19 16 14 13 14 15 15 13 10 9 12 16 19 20 20 21 22 24 26 28 30 30 29 27 24 21 18 16 16 16 17 17 18 19 20 21 21 21 20 19 19 19 19 18 18 18 17 17 17 17 16 16 15 15 15 16 16 16 14 12
8 8 7 7 6 5 4 4 5 5 6 6 7 8 10 11 12 13 14 14 15 17 19 21 20 18 16 14 13 13 14 16 15 12 9 9 13 17 20 20 19 20 22 25 26 27 28 29 28 26 23 20 17 15 15 15 17 18 19 21 21 21 21 20 20 19 19 19 19 18 18 17 17 17 16 16 16 16 15 15 15 16 16 14 13 12
9 8 8 7 5 4 3 3 4 5 5 7 7 8 10 11 12 13 13 14 16 18 19 18 16 15 15 14 14 14 16 16 14 11 9 10 13 17 19 19 19 20 22 24 25 25 25 26 26 25 22 19 15 14 14 16 18 20 21 21 22 21 20 20 19 19 19 19 18 18 17 17 17 16 16 16 15 15 14 15 15 16 15 13 13 13
9 8 7 6 4 3 2 2 2 3 4 5 7 8 10 11 13 14 14 15 17 18 17 13 11 12 14 14 15 17 18 15 11 8 9 12 14 16 18 19 20 20 22 23 24 23 23 23 23 22 20 17 15 14 16 18 20 22 22 22 21 20 20 19 19 19 19 18 18 17 17 17 16 16 16 16 15 14 14 15 15 15 14 13 13 14
8 7 6 4 3 1 1 2 1 1 2 2 5 8 11 12 13 13 14 15 17 16 14 11 9 9 10 13 16 18 18 11 7 7 10 15 16 16 18 20 20 20 21 22 23 22 21 20 20 19 16 15 15 16 19 21 23 23 22 21 20 20 19 19 19 19 18 18 17 17 17 17 16 16 16 15 14 14 14 15 15 15 13 13 14 15
5 4 2 1 2 3 4 5 5 4 4 4 6 9 11 12 12 12 13 15 16 15 13 12 11 10 10 14 17 17 13 6 5 8 14 17 16 16 19 19 19 19 20 20 21 20 18 17 16 15 14 14 17 20 22 24 24 23 22 21 21 20 20 19 19 19 18 17 17 17 17 17 17 16 15 15 14 14 14 15 15 14 13 13 14 14
2 2 3 4 5 6 6 6 6 6 6 7 8 10 11 12 12 12 13 14 14 14 13 13 12 12 12 13 13 11 7 4 7 13 17 17 16 17 18 18 17 17 18 17 14 12 13 14 13 13 14 17 20 22 24 24 24 23 22 22 22 21 21 19 18 18 17 17 17 17 17 17 16 16 15 14 14 14 14 14 14 14 13 14 14 13
3 4 5 6 6 6 7 7 7 7 8 8 9 10 11 11 12 12 13 13 14 13 13 13 12 12 11 8 5 3 4 6 11 16 18 17 15 16 17 16 16 16 15 13 7 4 8 11 12 15 17 20 22 23 23 22 22 21 21 22 22 22 21 19 18 17 17 17 17 17 17 16 16 15 14 14 14 14 14 14 14 14 14 14 14 13
4 5 5 6 6 7 7 7 8 8 8 8 9 9 10 11 11 12 13 13 14 14 14 13 13 12 11 8 5 5 8 12 16 17 17 15 15 15 15 14 14 15 13 11 8 6 6 6 13 19 21 22 22 22 21 21 20 20 20 21 22 22 20 19 18 17 17 17 17 17 17 16 15 15 14 14 14 14 14 14 14 14 14 14 13 12
4 5 5 6 6 7 7 7 7 7 8 8 8 9 10 10 11 12 13 14 14 14 14 14 13 12 12 12 12 12 15 18 18 17 15 14 13 14 14 14 14 14 14 12 11 11 10 11 16 22 23 23 21 21 20 19 18 18 19 20 22 22 20 19 18 18 18 18 18 18 17 16 15 14 14 14 14 15 15 14 14 14 13 13 13 12
4 5 5 6 6 6 6 7 7 7 8 8 9 10 11 11 12 13 13 14 14 14 14 14 14 13 13 13 14 16 18 19 18 17 15 13 12 12 14 13 13 14 14 13 13 13 14 16 18 19 20 22 21 20 19 18 17 18 18 20 20 21 20 19 18 19 19 19 19 19 17 16 14 13 13 13 14 15 15 15 14 13 13 12 12 12
5 6 6 6 6 6 6 7 7 8 9 10 11 12 13 13 14 14 14 14 14 14 14 14 14 14 14 14 14 16 18 20 19 17 14 13 12 13 13 13 13 13 13 13 13 13 13 16 17 17 18 19 20 19 17 17 17 18 19 19 19 19 19 18 18 19 19 19 19 18 17 15 14 13 13 13 14 15 15 15 14 13 12 11 11 11
6 6 6 6 6 7 8 8 9 10 11 12 13 14 15 15 16 16 15 15 14 13 13 13 13 14 14 15 16 18 20 21 18 14 11 11 12 13 13 13 13 13 13 14 14 13 14 15 17 17 17 16 16 17 17 17 18 18 19 19 18 18 18 18 18 18 19 19 18 17 15 14 13 13 13 14 14 15 15 15 14 13 12 11 10 10
6 6 7 7 8 9 10 11 12 13 14 15 15 16 16 17 17 16 16 15 14 13 12 12 12 12 13 14 16 18 19 19 15 11 9 9 10 13 15 15 15 15 14 14 14 15 15 15 16 16 15 14 13 14 17 18 19 18 18 18 18 18 17 17 18 18 18 18 16 15 14 13 13 14 14 15 15 16 16 16 15 13 12 11 10 9
6 6 7 8 9 11 12 13 14 15 15 16 17 17 17 17 17 16 16 15 14 13 13 12 11 11 11 11 13 14 15 14 12 10 8 8 9 12 14 16 17 16 16 16 15 15 15 13 12 11 12 14 15 15 17 18 18 18 18 18 17 17 17 17 18 18 17 16 15 14 13 14 14 15 15 15 16 17 17 17 16 14 13 12 11 10
6 6 8 9 10 12 13 14 14 15 16 16 16 17 17 17 16 16 15 15 14 14 13 13 12 11 10 9 9 10 10 10 10 9 8 8 9 10 12 14 16 16 16 16 16 16 15 14 12 11 11 14 16 17 17 17 16 17 18 18 17 16 16 17 18 17 16 15 15 14 14 15 15 15 15 15 15 16 16 17 17 15 14 14 13 12
6 7 8 10 11 12 13 14 14 15 15 15 16 16 16 16 16 15 15 15 14 14 14 14 13 12 11 10 8 8 7 8 8 8 8 8 9 10 11 13 15 16 17 17 16 16 15 15 15 15 15 15 16 17 18 17 16 16 17 16 15 16 17 18 17 17 16 15 15 15 15 15 14 14 14 14 14 15 15 16 16 15 14 13 13 13
7 8 9 10 11 12 13 13 14 14 14 14 13 14 14 15 16 16 16 16 16 15 15 15 15 14 13 11 9 8 7 7 7 7 7 8 10 11 12 13 14 16 17 17 17 16 16 16 17 17 17 17 17 18 18 17 17 16 15 14 15 17 18 18 16 15 15 16 16 16 15 14 14 15 15 15 15 15 14 14 14 14 12 11 11 11
7 8 9 10 11 12 13 13 13 13 13 12 11 12 13 15 17 18 19 19 19 18 18 18 18 18 17 14 12 10 9 9 8 8 9 10 11 12 13 14 15 16 17 17 17 17 17 17 17 17 17 17 17 17 17 18 17 16 14 15 16 17 17 16 16 15 16 16 16 16 16 15 16 16 16 16 15 15 15 14 13 12 11 11 11 11
8 9 10 11 11 12 13 13 12 11 10 9 10 11 13 14 16 17 19 20 20 20 20 20 20 20 20 20 18 15 13 12 11 11 11 12 13 13 14 14 15 16 17 18 18 18 18 17 17 18 18 17 16 16 17 18 18 17 15 15 16 15 14 15 17 17 17 17 17 17 17 17 17 17 17 16 16 15 15 14 12 11 11 11 11 11
8 9 10 11 12 12 12 12 11 10 9 9 9 11 13 14 15 17 18 19 19 19 19 20 20 20 20 20 20 19 19 16 15 14 14 14 14 14 14 16 17 17 17 18 18 18 18 18 18 18 18 18 17 17 17 18 18 17 17 16 15 14 13 15 18 18 18 17 17 17 18 18 18 17 17 16 15 15 14 14 13 13 12 11 11 11
9 10 11 11 12 12 12 12 10 9 9 10 11 12 14 15 16 17 18 19 19 19 19 20 19 18 17 18 19 20 20 19 18 17 16 16 15 15 15 16 17 17 17 17 18 18 18 19 20 21 21 19 18 17 17 17 18 18 17 16 15 15 16 17 17 17 17 17 18 18 19 18 18 17 16 16 15 15 14 14 14 13 12 12 11 11
10 10 11 12 12 12 12 12 11 10 11 12 13 14 15 16 16 18 18 19 19 19 18 18 17 15 14 16 17 18 19 19 19 18 18 18 19 18 18 18 18 18 18 18 18 19 20 21 22 22 22 20 19 18 19 19 18 18 18 17 16 16 16 16 16 16 16 17 18 19 19 19 17 16 15 15 15 15 15 14 13 13 13 12 11 11
11 11 12 13 13 12 12 12 12 13 13 14 15 15 16 17 18 18 19 19 19 18 18 17 16 14 14 15 16 17 17 17 18 19 19 20 20 20 20 20 19 19 18 18 19 19 20 21 22 22 22 20 18 18 19 20 19 18 17 17 16 15 15 16 16 17 17 17 18 18 19 18 17 15 15 15 15 15 15 14 14 13 12 12 11 11
11 12 13 13 13 13 13 14 14 15 16 16 16 16 16 17 18 19 19 19 19 18 17 16 16 15 15 16 16 16 15 16 17 18 19 20 20 20 20 20 20 20 19 18 18 18 18 19 19 19 20 20 18 17 19 20 19 18 17 16 15 15 16 16 17 17 17 17 17 18 18 17 16 15 15 15 15 14 15 15 14 13 12 11 10 10
12 12 13 13 14 14 14 15 15 16 17 18 18 17 17 17 17 18 19 19 18 17 16 15 15 16 16 16 16 16 15 16 17 18 19 19 19 20 20 20 20 20 19 18 18 17 16 16 15 15 15 17 18 18 19 19 19 19 17 16 16 15 16 17 17 17 17 17 18 18 17 17 16 15 15 14 14 14 15 15 14 13 12 11 10 11
12 13 13 13 14 14 14 15 16 17 17 18 18 19 18 18 18 18 19 19 18 16 15 15 15 15 15 16 16 16 16 17 17 18 18 19 19 19 20 20 20 19 18 17 17 16 15 14 14 12 10 10 12 14 16 18 19 18 17 16 15 15 15 16 17 17 17 17 18 18 18 17 16 15 14 13 13 13 14 14 14 13 12 12 11 11
12 13 13 13 14 14 14 15 15 16 17 17 18 19 19 20 20 20 20 19 18 16 16 16 15 15 15 15 16 16 16 17 17 18 19 19 20 19 19 19 19 18 17 16 16 16 15 13 12 11 11 8 7 9 12 15 17 17 16 15 15 15 15 16 17 18 18 18 18 18 18 17 16 14 13 12 11 12 12 13 13 13 13 13 13 13
Wind_Direction
222 220 218 218 218 218 222 227 232 238 247 256 262 267 275 284 293 300 306 310 314 315 315 314 314 314 315 316 316 315 314 314 316 318 320 320 320 320 320 320 319 317 316 316 317 316 315 315 314 314 313 312 311 311 311 311 311 310 310 310 310 310 309 309 310 310 309 310 310 311 311 311 311 312 312 312 312 313 314 313 313 314 313 313 313 314
216 215 213 215 216 218 223 232 237 241 250 259 266 272 278 286 294 301 307 311 314 314 314 313 313 313 314 315 315 314 312 313 315 317 318 317 317 318 319 319 318 317 316 316 317 317 318 317 316 315 314 314 313 312 312 312 312 312 312 311 311 311 310 311 311 311 311 311 311 312 312 312 312 312 313 313 313 313 314 313 313 312 311 311 311 310
205 205 208 213 215 217 222 234 242 247 253 262 270 277 284 291 298 304 309 313 314 314 313 312 312 313 314 315 316 314 312 313 314 315 316 317 319 321 321 321 320 319 318 317 318 319 319 319 318 317 315 314 314 314 313 313 313 312 312 312 312 312 311 312 312 312 312 313 313 313 313 313 313 313 313 313 313 313 313 312 311 310 309 309 308 308
201 201 207 213 216 219 224 233 243 253 260 267 274 282 289 296 303 308 312 314 314 312 310 310 312 314 317 318 318 317 317 317 318 319 322 325 327 328 328 326 324 323 321 320 320 321 322 321 320 318 317 317 316 316 316 315 314 313 312 311 312 313 313 314 314 314 314 315 315 315 314 315 315 314 314 314 313 312 312 311 310 310 310 309 309 309
202 204 211 214 216 221 229 233 242 255 265 273 281 288 295 301 307 311 314 315 315 313 311 312 316 320 323 324 323 323 325 328 329 331 332 335 336 336 334 331 329 327 325 323 322 323 324 323 322 321 320 319 319 318 317 316 315 314 313 312 313 314 315 315 315 315 316 317 316 316 316 315 315 315 314 314 313 312 312 311 311 311 311 311 311 312
203 207 214 216 218 223 230 235 244 255 267 278 286 293 300 305 310 314 316 317 318 317 317 320 325 330 332 332 331 332 334 336 338 338 340 342 342 341 339 336 333 331 329 327 326 325 325 324 323 322 321 322 322 321 319 317 315 314 314 315 316 316 317 317 317 318 318 318 318 317 317 316 315 315 314 313 313 312 312 312 312 311 311 311 312 312
204 210 215 217 220 225 231 238 248 259 270 281 290 297 303 308 313 318 321 322 323 324 325 328 333 339 341 341 339 339 340 341 341 342 343 344 345 344 342 340 338 336 334 332 331 329 327 325 324 324 324 325 325 323 321 319 316 315 315 317 318 319 319 319 319 319 319 319 319 318 317 316 315 314 314 313 312 312 312 312 311 311 310 311 311 312
199 210 214 215 220 227 232 240 251 262 272 283 296 306 311 315 319 322 325 327 330 332 334 336 340 345 350 350 347 346 345 345 344 344 344 345 346 345 344 342 340 339 339 338 337 334 332 330 329 328 327 327 326 323 321 319 317 316 318 320 321 320 321 320 321 321 320 320 319 318 317 316 315 314 313 313 312 312 312 311 311 311 310 311 311 312
198 205 212 216 219 223 232 243 254 266 276 290 303 314 321 325 326 327 329 332 336 339 341 343 345 350 354 356 353 351 348 346 345 344 344 345 346 346 345 343 342 342 343 343 342 341 340 338 335 333 331 329 327 324 322 319 318 319 321 322 322 321 321 321 321 321 320 320 319 318 317 316 315 314 313 313 312 312 311 311 311 311 311 311 312 312
207 205 207 216 221 223 227 240 259 274 288 304 312 317 324 332 335 335 335 335 338 341 344 346 348 350 354 358 357 353 349 346 344 343 343 344 346 347 346 344 343 343 345 345 345 346 346 345 342 338 335 332 330 328 325 322 322 323 324 323 322 322 322 322 321 321 320 319 319 318 317 316 315 314 314 313 313 312 312 311 311 311 311 312 312 312
204 207 204 206 216 223 226 233 254 279 300 315 319 321 329 337 341 341 339 336 337 340 345 347 349 350 352 355 356 353 348 344 341 341 342 344 347 348 347 345 344 345 345 346 348 349 349 348 345 341 338 337 335 333 330 328 327 326 325 323 323 322 322 321 321 321 320 319 318 318 317 316 315 314 313 313 313 313 313 312 312 312 312 312 312 312
195 199 201 201 207 216 225 235 251 274 301 322 330 334 341 342 343 343 339 333 333 337 341 344 348 353 355 355 354 352 347 343 341 340 341 344 347 349 348 347 346 345 346 347 350 351 351 349 346 343 341 340 340 339 336 333 330 327 325 323 322 322 321 321 321 321 320 319 319 318 317 316 315 314 313 313 313 313 313 312 312 312 312 311 311 311
200 199 200 204 208 212 220 233 254 284 319 345 356 352 343 339 341 341 337 332 332 336 338 340 344 351 358 357 354 350 346 342 339 338 339 342 346 349 348 346 345 345 346 347 350 351 351 348 345 344 343 343 344 343 341 335 330 327 324 323 322 322 321 321 321 320 320 320 319 318 318 317 315 315 314 314 314 314 313 312 312 312 312 312 311 311
199 201 200 199 204 211 218 230 258 318 348 359 359 352 342 338 338 338 335 331 332 337 339 337 340 346 354 354 352 349 345 340 337 336 337 340 344 347 347 345 343 343 344 344 346 349 350 346 344 344 345 346 347 346 342 335 329 326 324 323 322 321 321 320 320 320 320 320 320 319 318 317 316 315 315 314 314 314 313 312 312 312 312 312 311 311
195 195 193 193 197 206 217 233 258 311 348 359 359 352 343 339 337 336 334 329 330 335 338 338 340 345 350 348 347 346 344 339 337 335 334 336 342 347 346 343 341 341 342 341 343 345 347 345 343 343 345 346 347 344 337 330 326 324 323 323 322 321 321 320 320 320 320 321 320 319 318 317 317 316 316 315 315 315 314 314 313 313 313 312 311 311
199 197 196 194 196 204 221 237 258 322 357 3 1 352 343 335 333 333 332 326 328 333 337 340 342 343 343 343 345 344 342 339 335 333 331 331 338 345 346 342 339 338 339 339 340 342 344 344 343 343 344 345 344 339 331 327 325 324 323 322 322 321 320 320 320 321 321 321 321 320 319 319 318 318 317 317 316 315 315 314 314 313 313 312 312 311
201 198 200 199 197 202 222 230 232 281 2 3 355 344 334 329 328 329 327 325 327 331 337 342 342 336 333 333 337 341 342 338 334 331 329 327 333 341 345 341 336 334 335 335 337 339 340 341 341 342 343 343 341 336 331 328 326 324 322 322 321 321 320 320 320 321 321 322 321 320 320 319 319 319 318 318 316 316 315 314 314 313 313 312 312 312
203 202 202 198 198 203 209 197 176 120 356 354 344 334 326 324 325 325 323 324 325 327 330 335 332 322 320 323 326 334 341 337 332 329 326 323 328 336 343 340 335 332 331 332 333 336 337 338 338 339 340 341 339 335 330 328 325 322 321 321 321 321 320 320 321 321 322 322 322 321 320 320 319 319 319 318 317 317 316 316 315 315 314 314 313 312
210 213 209 204 203 202 191 174 155 82 355 342 333 324 317 318 322 324 323 322 322 322 323 323 321 317 314 311 320 330 340 338 332 328 323 320 323 330 339 338 334 331 329 329 331 334 335 335 337 338 339 340 339 336 329 326 323 321 321 320 320 321 320 321 321 322 322 323 322 322 322 321 320 320 319 319 319 318 318 318 317 317 316 316 314 313
220 221 217 213 199 179 163 157 144 3 339 329 320 315 314 318 321 323 321 320 320 320 320 318 315 314 314 313 320 331 341 339 333 327 321 317 318 325 334 335 332 328 326 327 330 333 332 333 335 337 339 340 339 335 328 324 321 320 320 320 321 321 321 322 322 323 324 324 324 323 322 321 320 320 320 320 320 320 320 319 319 318 318 317 315 314
222 208 187 178 165 154 144 131 83 2 334 322 315 312 316 319 320 320 321 321 320 319 319 317 314 313 315 314 321 331 341 340 333 325 319 315 316 322 330 332 330 327 324 325 328 331 331 331 333 336 338 339 336 331 325 323 321 319 319 320 321 322 322 323 324 324 325 325 325 325 324 322 321 321 321 322 322 321 321 321 320 319 319 317 316 317
186 169 159 153 142 131 118 94 52 3 332 319 315 313 316 318 318 319 323 324 322 319 316 313 314 316 319 320 326 335 340 338 331 323 318 312 311 317 328 330 328 326 322 323 326 328 329 330 331 334 336 336 332 328 324 322 320 319 320 321 322 323 323 324 325 325 326 327 327 326 325 323 322 322 322 323 323 323 323 322 322 321 319 318 319 324
147 144 137 129 119 106 85 61 35 2 335 324 321 320 316 319 320 322 324 323 322 320 318 318 319 322 325 328 333 337 338 334 329 324 316 304 305 314 324 327 327 324 320 320 323 325 327 328 329 332 334 335 332 328 324 321 320 320 320 321 323 323 324 325 326 326 327 328 328 327 326 325 324 324 324 325 325 325 325 324 323 321 321 323 327 333
125 123 117 109 98 85 69 46 18 354 337 328 323 319 318 320 322 323 324 323 321 319 318 320 323 326 329 332 335 335 333 331 328 323 314 300 302 311 320 326 326 322 318 318 321 323 324 325 328 331 332 334 332 327 324 323 321 321 321 322 323 324 325 326 327 327 328 329 329 328 327 326 326 325 326 326 327 326 326 325 323 322 323 328 333 338
104 100 95 87 78 68 54 30 8 352 340 331 324 320 318 318 320 322 323 322 319 319 320 325 328 330 330 331 331 330 330 329 327 321 313 304 305 311 318 324 325 321 316 317 320 322 322 322 325 328 331 332 332 329 325 325 324 323 323 323 324 325 326 327 328 329 329 329 329 329 329 328 327 327 327 328 328 328 327 325 324 324 326 331 334 336
86 83 80 79 79 75 63 38 17 4 349 336 326 319 314 315 318 320 320 318 319 324 330 334 333 329 328 329 329 328 327 328 324 318 314 312 312 313 318 324 325 321 317 317 319 321 320 318 320 324 328 331 332 331 327 326 325 324 324 324 325 326 327 328 329 330 330 330 330 330 331 330 330 330 330 329 329 328 327 326 326 327 330 333 335 338
94 94 96 102 109 114 113 92 61 35 11 348 327 314 311 314 318 319 318 320 325 331 338 339 333 327 328 328 326 324 325 324 320 313 314 321 319 316 318 323 325 323 319 317 318 318 316 312 314 319 325 329 330 327 324 324 325 325 326 326 327 328 328 330 330 331 331 331 331 332 333 333 332 331 332 331 330 329 328 327 329 331 335 336 338 341
120 119 122 130 143 178 236 266 292 329 352 339 311 304 308 315 320 322 324 327 330 335 339 336 330 324 323 322 320 320 322 320 313 311 318 327 323 314 316 322 325 325 322 319 317 317 315 312 313 317 322 325 325 323 322 324 326 328 329 330 330 330 330 331 331 332 333 333 333 334 334 334 334 333 333 332 331 330 329 330 332 334 337 338 340 343
145 149 164 221 278 292 298 300 299 301 304 301 298 303 312 319 323 325 326 327 330 333 333 329 324 318 315 315 316 318 322 319 319 325 329 332 324 313 317 323 327 328 328 324 321 319 317 315 317 320 321 322 321 321 323 325 328 331 333 334 334 333 332 332 333 333 334 334 335 335 336 335 335 335 334 333 332 331 332 333 334 336 337 337 339 341
203 249 280 294 301 307 312 316 317 315 313 310 310 313 319 323 325 325 325 326 327 328 328 322 318 316 317 320 321 322 323 337 336 333 333 332 323 315 319 323 327 330 333 332 328 322 317 318 320 322 322 321 321 323 325 327 330 333 335 335 334 334 335 335 335 335 335 335 336 336 336 336 336 335 334 333 333 333 334 335 335 336 336 336 337 339
271 282 292 300 307 314 320 324 326 324 321 318 317 318 320 323 324 324 324 324 324 323 322 317 314 313 315 323 328 321 304 320 326 327 329 329 320 313 318 321 323 326 333 335 335 321 317 318 319 320 321 321 321 323 325 328 330 332 333 333 332 334 336 338 338 337 337 336 335 336 336 336 336 335 334 333 334 335 336 336 335 334 334 335 336 338
285 291 298 305 313 320 324 326 325 324 322 319 318 319 321 323 324 324 323 322 320 318 316 312 309 306 305 300 289 277 286 300 309 317 323 323 315 310 314 316 318 320 325 325 316 303 306 309 312 315 318 319 320 322 324 326 329 331 332 331 331 333 338 340 340 339 339 336 335 335 336 336 335 335 334 333 334 336 337 337 334 332 332 333 336 337
291 298 305 312 317 321 322 321 321 321 320 320 321 322 324 324 325 324 323 320 317 313 310 308 305 301 298 292 285 282 288 295 303 312 319 319 314 310 312 313 314 315 317 315 305 293 287 291 302 309 313 315 317 319 321 325 328 329 330 329 329 333 338 341 340 339 338 336 336 337 338 338 337 334 332 332 334 335 335 335 334 332 332 333 334 336
298 305 310 314 316 316 316 317 319 321 324 325 326 327 327 327 326 324 322 318 314 310 306 303 301 299 295 294 291 290 292 297 305 313 316 318 314 309 310 310 311 313 315 314 308 300 293 293 299 306 310 312 314 316 319 323 326 326 327 328 329 331 335 338 338 337 336 335 335 337 338 339 337 333 331 331 332 333 334 334 334 334 333 332 332 334
301 304 308 309 311 312 316 321 325 328 330 331 331 330 329 329 327 325 322 318 314 310 306 302 300 298 294 291 291 291 292 299 306 313 315 315 311 307 307 306 307 311 313 311 310 308 304 301 302 305 308 310 311 313 317 321 323 324 325 327 329 330 333 336 336 335 334 333 334 335 336 336 334 332 330 330 330 330 332 333 335 335 335 333 332 333
297 298 304 311 316 322 327 331 334 336 336 336 334 333 331 330 329 327 325 321 318 313 309 305 302 299 296 291 287 287 290 300 309 316 316 313 308 304 301 299 301 306 308 308 308 308 306 305 305 305 306 307 309 312 315 319 322 324 325 327 329 330 332 334 335 333 332 331 331 332 332 332 331 329 329 329 329 329 330 333 335 337 336 335 334 333
291 295 307 319 328 335 338 339 340 340 340 338 336 334 333 332 330 329 328 326 324 321 318 313 308 304 299 295 291 291 294 303 311 316 314 309 304 300 297 295 299 303 304 303 305 307 307 306 306 306 305 303 305 309 313 318 321 323 324 326 326 327 329 333 334 333 331 329 329 328 328 328 328 328 328 329 329 330 332 335 338 339 339 338 337 335
294 305 320 331 338 342 343 344 343 342 341 339 337 335 333 332 331 331 331 331 331 330 328 325 322 316 309 302 297 296 299 304 308 312 311 306 300 297 297 298 301 305 305 303 302 303 304 303 304 306 305 303 302 304 308 314 318 319 320 322 323 324 326 329 331 331 329 328 326 326 326 327 327 327 328 330 331 332 333 335 339 342 343 344 344 341
308 322 333 340 343 345 345 345 343 342 340 338 335 333 332 331 332 333 335 337 339 338 337 334 333 331 327 319 310 303 301 303 306 309 310 308 304 302 302 302 304 308 311 308 303 299 296 294 294 295 300 302 303 304 306 309 312 314 317 319 321 322 324 326 328 328 327 325 323 323 324 325 326 327 328 329 331 331 331 332 335 338 340 342 342 342
325 335 342 345 346 345 345 343 342 341 339 337 335 332 331 332 334 337 341 344 345 345 342 339 337 337 338 337 331 321 312 308 308 310 312 314 316 315 312 310 310 312 313 310 304 297 292 288 286 287 289 294 298 301 304 306 308 311 315 318 319 320 321 323 324 325 325 323 321 321 322 324 325 326 327 328 328 327 326 327 329 332 334 334 333 332
337 343 345 346 346 345 344 343 342 340 338 337 334 332 333 335 339 343 346 348 349 348 346 343 341 341 343 348 350 347 339 331 325 323 325 328 329 327 323 318 317 316 314 309 303 298 292 288 286 286 287 288 292 296 299 300 304 308 311 311 310 311 314 317 320 321 321 321 321 321 321 322 323 325 325 324 324 324 324 324 324 326 328 326 324 323
344 346 346 346 346 346 345 344 343 342 341 337 336 338 341 345 348 350 351 351 352 352 350 350 348 348 349 355 1 3 360 354 349 345 342 339 336 331 326 323 320 318 313 307 301 297 293 290 288 286 287 288 291 294 296 298 300 303 304 303 305 308 313 315 317 319 319 318 318 320 320 320 321 322 322 321 321 323 325 325 324 322 319 318 319 320
347 347 347 348 348 348 348 348 347 346 344 345 349 353 355 356 356 356 355 355 355 355 354 354 352 350 348 350 355 360 3 3 359 354 348 342 336 330 326 323 322 319 314 307 300 297 297 294 290 287 287 289 289 290 292 295 298 300 299 300 304 308 310 312 314 316 316 315 316 317 318 319 320 320 320 320 321 323 325 325 325 322 320 320 321 323
350 350 350 352 352 352 353 354 355 355 357 2 7 7 4 3 1 0 359 358 357 357 358 356 354 351 348 346 346 348 352 357 359 356 349 343 336 330 324 322 321 319 315 306 299 296 297 296 293 291 291 291 289 287 288 291 294 296 297 300 300 299 298 303 308 311 312 312 313 315 317 318 318 318 319 320 321 322 324 325 324 325 326 328 328 328
353 354 356 358 359 359 360 2 5 10 17 20 19 14 9 7 5 3 3 360 359 359 360 357 354 350 346 342 339 339 341 345 349 349 347 344 339 333 328 325 323 321 316 308 301 296 294 292 292 294 295 293 289 286 284 285 288 291 295 298 299 296 294 299 302 304 307 309 311 313 315 318 319 319 319 319 321 322 322 323 323 325 327 330 331 330
359 1 3 4 4 5 7 9 15 23 28 28 24 18 12 8 6 6 5 2 360 358 358 356 353 347 340 336 334 334 334 336 338 339 340 340 339 338 336 333 330 325 318 311 305 298 293 290 290 292 294 293 290 286 282 282 284 287 292 296 298 299 299 301 302 303 304 306 309 311 315 317 319 318 317 317 318 320 320 322 323 324 326 328 330 331
7 8 9 9 10 11 13 16 20 23 24 24 23 20 14 9 7 6 6 4 1 357 353 352 348 342 335 331 330 330 330 330 331 332 333 334 336 337 337 336 333 328 321 314 308 303 298 295 293 290 286 285 285 285 286 287 287 287 290 294 298 299 300 301 303 305 306 307 308 310 314 316 318 317 316 316 317 317 319 321 323 324 326 327 329 330
12 13 13 13 14 16 18 20 20 20 18 17 18 18 15 11 8 6 4 3 1 356 350 347 342 337 332 330 329 329 327 327 327 328 328 329 331 332 332 332 331 328 324 318 313 308 304 301 298 291 283 276 273 277 285 291 292 292 293 295 297 298 298 300 303 306 308 307 308 310 312 313 313 313 314 314 314 315 316 318 320 323 325 328 328 329
17 17 17 17 18 21 23 22 20 18 15 11 9 11 14 13 11 8 4 2 359 354 347 342 338 333 330 328 329 329 328 326 325 325 326 328 328 329 328 327 326 325 323 321 318 315 312 309 305 298 287 276 270 272 280 289 295 297 297 296 295 295 296 299 303 306 307 308 308 309 310 310 309 309 310 310 308 309 311 313 316 320 324 327 328 328
21 21 21 21 23 24 25 24 22 18 13 8 4 4 7 10 11 10 7 2 357 351 345 340 335 331 327 327 328 329 328 327 325 326 326 328 328 327 326 327 326 326 325 326 326 325 324 322 320 317 307 287 277 276 280 287 294 298 298 298 297 297 297 299 302 305 307 307 308 308 308 308 309 309 307 304 302 304 307 309 312 317 322 325 326 326
25 25 24 24 25 26 25 25 22 18 12 6 2 2 3 5 7 7 5 1 355 349 343 339 335 330 326 326 327 327 327 326 326 325 326 327 327 326 326 326 327 328 329 331 333 334 334 333 333 334 332 319 298 288 287 290 294 297 299 300 301 301 300 300 303 305 306 306 307 307 307 307 307 306 303 299 298 300 303 306 309 313 318 322 324 325